Location: Squamish
(49.7000°N, 123.1500°W)
Time: 06:34:52
(UTC-07:00)

Daily predictions for brighter satellites

Satellite Brightness Start Highest point End
(mag) Time Altitude Azimuth Time Altitude Azimuth Time Altitude Azimuth
Meteor 1-4 Rocket 4.0 22:01:32 10° N 22:04:49 27° ENE 22:08:03 10° SE
NOAA 11 4.4 21:59:35 10° SSE 22:04:55 60° ENE 22:10:18 10° N
Cosmos 1939 Rocket 4.2 22:02:44 10° SSW 22:06:25 37° W 22:10:04 10° NNW
Cosmos 1674 2.8 22:07:12 10° SSW 22:11:02 83° W 22:14:56 10° N
Cosmos 2242 Rocket 4.4 22:07:56 10° N 22:12:07 37° ENE 22:16:17 10° SE
Aureole 3 4.4 22:08:38 10° S 22:15:12 69° E 22:20:24 10° NNE
MetOp-B 4.4 22:10:03 10° S 22:15:24 71° WSW 22:20:47 10° NNW
Cosmos 1300 2.8 22:13:04 10° N 22:16:55 64° ENE 22:20:43 10° SSE
Cosmos 1626 4.4 22:16:24 10° E 22:17:16 11° E 22:18:07 10° ENE
NOSS 3-1 (A) 4.4 22:12:45 10° SSE 22:17:33 26° ESE 22:22:46 10° ENE
Cosmos 1437 Rocket 4.4 22:14:20 10° NNW 22:17:43 31° W 22:21:06 10° SSW
SPOT 5 3.7 22:15:58 10° S 22:20:24 48° W 22:25:07 10° NNW
Cosmos 1437 2.7 22:17:19 10° S 22:20:36 83° ESE 22:23:54 10° NNE
Envisat 4.2 22:17:07 10° SSW 22:21:54 40° W 22:26:42 10° NNW
SL-08 RB Rocket 3.7 22:19:22 10° SSE 22:23:49 73° ENE 22:28:19 10° N
DELTA 2 DEB (DPAF) 4.4 22:20:54 10° SSE 22:25:19 60° ENE 22:29:46 10° N
Cosmos 2227 Rocket 3.8 22:24:29 10° SE 22:27:52 16° E 22:31:16 10° ENE
AVUM R/B 3.0 22:26:00 10° SW 22:28:23 64° NW 22:31:02 10° NNE
USA 245 2.6 22:25:52 10° S 22:28:24 55° WSW 22:30:41 10° NNW
Cosmos 2333 Rocket 2.8 22:26:02 10° NNW 22:31:37 49° NE 22:37:11 10° SE
Cosmos 1833 4.3 22:26:52 10° SSW 22:32:36 85° WNW 22:38:18 10° NNE
CARTOSAT-1 4.0 22:31:26 11° SE 22:35:27 50° ENE 22:39:40 10° N
SL-16 R/B 3.8 22:30:41 10° NNW 22:35:28 27° NE 22:40:15 10° E
Cosmos 2298 Rocket 4.4 22:30:34 10° S 22:35:35 44° ESE 22:40:39 10° NE
YAOGAN 6 3.6 22:33:33 10° S 22:37:02 42° W 22:40:30 10° NNW
Sich 1 3.3 22:34:26 10° S 22:38:44 54° E 22:43:03 10° NNE
Cosmos 2151 3.5 22:34:53 10° SSW 22:39:02 60° WNW 22:43:14 10° N
Cosmos 1455 3.4 22:36:18 10° N 22:39:41 29° ENE 22:42:35 13° SE
Cosmos 1633 Rocket 3.3 22:35:33 10° S 22:39:48 52° E 22:44:04 10° NNE
ATLAS 2AS CENTAUR R/B 4.2 22:35:30 10° SSE 22:40:35 20° ESE 22:46:00 10° ENE
Cosmos 1937 Rocket 4.3 22:38:43 10° SSE 22:43:21 33° ESE 22:47:58 10° NE
COSMOS 2428 3.0 22:37:44 10° NNW 22:43:22 66° WSW 22:48:48 11° SSE
CZ-4C R/B 3.0 22:40:55 12° SSE 22:44:09 88° E 22:47:40 10° NNW
Cosmos 1328 4.4 22:41:48 10° SSW 22:45:42 58° WNW 22:49:37 10° N
ATLAS 5 CENTAUR R/B 4.3 22:42:42 10° W 22:47:09 29° NNW 22:51:57 10° NE
Lacrosse 4 Rocket 3.3 22:47:35 10° NNW 22:51:15 25° NE 22:54:56 10° E
Cosmos 1805 Rocket 3.8 22:49:29 10° SSW 22:53:55 72° WNW 22:58:23 10° N
Cosmos 2297 Rocket 3.7 22:52:10 13° SE 22:55:10 19° E 22:59:00 10° ENE
H-2A R/B 2.2 22:50:52 12° SSE 22:55:49 85° ENE 23:01:18 10° NNW
ATLAS 3B R/B 3.4 22:49:06 10° NW 22:56:10 52° NE 23:02:46 10° ESE
Cosmos 2219 Rocket 2.2 22:53:49 10° NNW 22:59:27 90° ENE 23:04:09 15° SSE
Landsat 7 4.0 22:57:10 12° S 23:01:38 70° WSW 23:06:25 10° NNW
Cosmos 2058 3.7 23:00:14 10° SSW 23:04:14 52° WNW 23:08:17 10° N
NOSS 3-1 (C) 3.5 22:58:53 10° SSW 23:04:45 63° SE 23:11:21 10° NE
ARGOS 4.0 23:00:44 10° S 23:05:54 45° W 23:11:06 10° NNW
Cosmos 292 Rocket 3.9 23:02:06 10° NNW 23:06:52 70° WSW 23:10:41 16° SSE
Cosmos 1726 3.2 23:05:00 10° NNW 23:08:34 41° W 23:12:09 10° SSW
SAR-Lupe-2 3.5 23:05:55 17° SSE 23:08:35 90° W 23:12:12 10° NNW
CZ-4B R/B 4.4 23:04:50 10° N 23:09:59 54° WNW 23:15:04 10° SW
Cosmos 1271 Rocket 3.0 23:06:48 10° NNW 23:10:35 61° W 23:13:42 15° S
SL-14 R/B 3.8 23:08:31 10° SSW 23:12:26 61° WNW 23:16:26 10° N
Cosmos 1346 3.8 23:11:27 22° SSE 23:12:55 36° E 23:15:45 10° NNE
Cosmos 1703 3.2 23:09:33 13° S 23:12:57 79° E 23:16:53 10° NNE
Spot 4 3.9 23:10:46 16° SSE 23:14:39 90° NNE 23:19:33 10° NNW
Cosmos 1980 3.7 23:09:21 10° NNW 23:15:02 87° ENE 23:19:25 17° SSE
Cosmos 1666 Rocket 4.1 23:11:50 10° SSW 23:16:10 58° WNW 23:20:34 10° N
Nadezhda 1 Rocket 4.0 23:10:39 10° N 23:16:46 89° E 23:21:53 15° S
Terra 2.0 23:13:32 15° S 23:17:30 70° WSW 23:22:17 10° NNW
CZ-4B R/B 4.0 23:18:53 10° E 23:20:17 12° ENE 23:21:41 10° NE
Cosmos 2219 3.7 23:17:05 10° SW 23:22:48 66° WNW 23:28:33 10° NNE
Cosmos 1898 Rocket 3.5 23:18:00 10° SSW 23:23:12 90° ESE 23:28:28 10° NNE
COSMOS 2455 3.2 23:17:49 10° NNW 23:23:48 60° NE 23:28:56 14° SE
Cosmos 2150 Rocket 4.1 23:19:37 10° SSW 23:25:05 87° WNW 23:30:37 10° NNE
Cosmos 2237 Rocket 2.2 23:22:26 10° NNW 23:28:11 82° WSW 23:32:20 19° SSE
Iridium 2 4.0 23:25:04 14° SSW 23:28:18 66° W 23:32:09 10° N
Cosmos 1703 Rocket 4.2 23:24:55 10° N 23:29:05 42° ENE 23:31:45 20° SE
Cosmos 220 Rocket 4.0 23:25:32 13° SSW 23:29:24 71° ESE 23:33:51 10° NNE
Cosmos 1470 Rocket 3.5 23:26:04 16° S 23:29:30 84° E 23:33:51 10° N
Okean 1-7 4.3 23:26:10 10° N 23:29:55 28° ENE 23:32:30 16° ESE
Cosmos 2221 Rocket 4.3 23:25:47 10° N 23:30:10 43° ENE 23:33:00 20° SE
IGS 5A 4.0 23:27:39 16° S 23:30:47 53° W 23:34:54 10° NNW
Cosmos 1933 Rocket 3.5 23:27:21 16° S 23:30:55 84° E 23:35:25 10° N
Cosmos 1933 3.9 23:28:02 10° N 23:31:58 47° ENE 23:34:19 22° SE
DMSP B5D2-2 4.1 23:26:49 10° NNE 23:32:05 89° E 23:36:57 12° SSW
Cosmos 1745 Rocket 4.1 23:26:45 10° SSW 23:33:00 82° W 23:39:13 10° N
Cosmos 2082 4.0 23:30:59 16° S 23:35:21 49° ESE 23:40:52 10° NE
SeaSat 1 2.6 23:35:08 19° SE 23:38:42 73° ENE 23:43:39 10° NNW
USA 234 4.2 23:32:34 10° ENE 23:38:47 49° N 23:45:02 10° WNW
Meteor 1-4 Rocket 4.4 23:36:46 10° NW 23:39:59 26° W 23:42:55 11° SSW
Cosmos 1709 Rocket 4.2 23:37:05 19° SSE 23:41:27 57° E 23:47:25 10° NNE
BREEZE-M DEB (TANK) 3.7 23:27:49 10° W 23:42:55 86° S 23:46:50 10° E
CZ-4C R/B 4.0 23:39:38 10° NW 23:45:46 38° NNE 23:52:37 10° E
CZ-4C R/B 4.1 23:48:41 21° ESE 23:50:25 34° ENE 23:53:42 10° N
Cosmos 1626 2.3 23:49:35 20° SSW 23:52:06 71° W 23:55:52 10° N
